HJ3GNC-17 Weather Reports


Display with metric or nautical units.
time (UTC)temp
F
wind
direction
speed
MPH
gust
MPH
rain 1hr
in
rain 24hr
in
rain mn
in
humidity
%
barometer
mb
20260507101632 44 80 0.0 0.0 0.00 0.00 0.00 92 1020.0
20260507100052 44 124 0.0 0.0 0.00 0.00 0.00 90 1020.0
20260507094512 44 124 0.0 0.0 0.00 0.00 0.00 90 1020.0
20260507092928 44 123 0.0 0.0 0.00 0.00 0.00 90 1020.0
20260507091345 44 123 0.0 0.0 0.00 0.00 0.00 90 1019.0
20260507085800 45 350 0.0 0.0 0.00 0.00 0.00 90 1019.0
20260507084215 46 350 0.0 0.0 0.00 0.00 0.00 90 1019.0
20260507082633 46 350 0.0 0.0 0.00 0.00 0.00 90 1020.0
20260507081047 46 350 0.0 0.0 0.00 0.00 0.00 90 1020.0
20260507075501 46 0 0.0 0.0 0.00 0.00 0.00 90 1020.0
20260507073921 46 0 0.0 0.0 0.00 0.00 0.00 90 1020.0
20260507072333 46 0 0.0 0.0 0.00 0.00 0.00 90 1020.0
20260507070753 46 0 0.0 0.0 0.00 0.00 0.00 90 1020.0
20260507065201 46 60 0.0 0.0 0.00 0.00 0.00 90 1020.0
20260507063616 46 60 0.0 0.0 0.00 0.00 0.00 90 1020.0
20260507062033 47 60 0.0 0.0 0.00 0.00 0.00 89 1021.0
20260507060450 47 40 0.0 0.0 0.00 0.00 0.00 88 1021.0
20260507054907 47 40 0.0 0.0 0.00 0.00 0.00 87 1021.0
20260507053327 47 40 0.0 0.0 0.00 0.00 0.00 86 1021.0
20260507051745 47 40 0.0 0.0 0.00 0.00 0.00 86 1021.0
20260507050200 47 20 0.0 0.0 0.00 0.00 0.00 84 1021.0
20260507044607 47 20 0.0 0.0 0.00 0.00 0.00 82 1021.0
20260507043020 47 20 0.0 0.0 0.00 0.00 0.00 80 1021.0
20260507041434 47 20 0.0 0.0 0.00 0.00 0.00 76 1022.0
20260507035847 48 70 0.0 0.0 0.00 0.00 0.00 71 1022.0
20260507034301 48 70 0.0 0.0 0.00 0.00 0.00 71 1022.0
20260507032717 49 70 0.0 0.0 0.00 0.00 0.00 71 1021.0
20260507031132 49 70 0.0 0.0 0.00 0.00 0.00 71 1021.0
20260507023945 54 110 0.0 0.0 0.00 0.00 0.00 58 1021.0
20260507022400 54 110 0.0 0.0 0.00 0.00 0.00 58 1021.0
20260507020817 54 110 0.0 0.0 0.00 0.00 0.00 58 1021.0
20260507015227 54 130 0.0 0.0 0.00 0.00 0.00 63 1021.0
20260507013643 54 130 0.0 0.0 0.00 0.00 0.00 63 1021.0
20260507012058 54 130 0.0 0.0 0.00 0.00 0.00 63 1020.0
20260507010514 54 130 0.0 0.0 0.00 0.00 0.00 63 1020.0
20260507004926 57 120 0.0 0.0 0.00 0.00 0.00 51 1020.0
20260507003340 57 120 0.0 0.0 0.00 0.00 0.00 51 1019.0
20260507001756 57 120 0.0 0.0 0.00 0.00 0.00 51 1018.0
20260507000212 59 130 0.0 0.0 0.00 0.00 0.00 48 1018.0
20260506234624 59 130 0.0 0.0 0.00 0.00 0.00 48 1018.0
20260506233035 55 124 0.0 0.0 0.00 0.00 0.00 85 1017.0
20260506231450 55 121 0.0 0.0 0.00 0.00 0.00 85 1016.0
20260506225852 55 121 0.0 0.0 0.00 0.00 0.00 85 1016.0
20260506224259 55 121 0.0 0.0 0.00 0.00 0.00 85 1016.0
20260506222710 55 122 0.0 0.0 0.00 0.00 0.00 85 1015.0
20260506221115 55 122 0.0 0.0 0.00 0.00 0.00 85 1015.0
20260506215532 55 122 0.0 0.0 0.00 0.00 0.00 85 1015.0
20260506212252 55 122 0.0 0.0 0.00 0.00 0.00 85 1014.0
20260506210620 55 122 0.0 0.0 0.00 0.00 0.00 85 1014.0
20260506205038 55 122 0.0 0.0 0.00 0.00 0.00 85 1014.0
20260506203449 55 122 0.0 0.0 0.00 0.00 0.00 85 1014.0
20260506201904 55 113 0.0 0.0 0.00 0.00 0.00 85 1015.0
20260506200308 55 113 0.0 0.0 0.00 0.00 0.00 85 1015.0
20260506194718 55 113 0.0 0.0 0.00 0.00 0.00 85 1015.0
20260506193135 55 113 0.0 0.0 0.00 0.00 0.00 85 1015.0
20260506191548 55 128 0.0 0.0 0.00 0.00 0.00 84 1016.0
20260506185942 55 128 0.0 0.0 0.00 0.00 0.00 82 1016.0
20260506184353 56 120 0.0 0.0 0.00 0.00 0.00 76 1017.0
20260506182806 51 127 0.0 0.0 0.00 0.00 0.00 92 1018.0
20260506181224 51 127 0.0 0.0 0.00 0.00 0.00 92 1018.0
20260506175610 51 127 0.0 0.0 0.00 0.00 0.00 92 1018.0
20260506174021 51 134 0.0 0.0 0.00 0.00 0.00 92 1018.0
20260506172433 51 88 0.0 0.0 0.00 0.00 0.00 92 1018.0
20260506170851 51 93 0.0 0.0 0.00 0.00 0.00 92 1018.0
20260506165307 51 88 0.0 0.0 0.00 0.00 0.00 92 1018.0
20260506163722 51 93 0.0 0.0 0.00 0.00 0.00 92 1019.0
20260506162108 51 78 0.0 0.0 0.00 0.00 0.00 92 1019.0
20260506160520 51 78 0.0 0.0 0.00 0.00 0.00 92 1019.0
20260506154929 51 78 0.0 0.0 0.00 0.00 0.00 92 1019.0
20260506153338 51 78 0.0 0.0 0.00 0.00 0.00 92 1019.0
20260506151744 52 35 0.0 0.0 0.00 0.00 0.00 92 1019.0
20260506150057 52 90 0.0 0.0 0.00 0.00 0.00 92 1019.0
20260506144505 52 90 0.0 0.0 0.00 0.00 0.00 93 1019.0
20260506142922 52 90 0.0 0.0 0.00 0.00 0.00 95 1019.0
20260506141330 52 90 0.0 0.0 0.00 0.00 0.00 97 1019.0
20260506135739 52 70 0.0 0.0 0.00 0.00 0.00 99 1019.0
20260506134151 52 70 0.0 0.0 0.00 0.00 0.00 99 1019.0
20260506132607 49 70 0.0 0.0 0.00 0.00 0.00 98 1019.0
20260506131019 48 0 0.0 0.0 0.00 0.00 0.00 98 1019.0
20260506125435 49 0 0.0 0.0 0.00 0.00 0.00 98 1019.0
20260506123847 48 20 0.0 0.0 0.00 0.00 0.00 98 1019.0
20260506122253 48 40 0.0 0.0 0.00 0.00 0.00 98 1020.0
20260506120708 48 60 0.0 0.0 0.00 0.00 0.00 98 1020.0
20260506115119 48 0 0.0 0.0 0.00 0.00 0.00 98 1020.0
20260506113532 48 0 0.0 0.0 0.00 0.00 0.00 98 1020.0
20260506111948 48 0 0.0 0.0 0.00 0.00 0.00 98 1020.0
20260506110407 48 0 0.0 0.0 0.00 0.00 0.00 98 1020.0
20260506104825 48 0 0.0 0.0 0.00 0.00 0.00 98 1020.0
20260506103239 48 0 0.0 0.0 0.00 0.00 0.00 98 1019.0